This demonstration page uses our WeatherBlox Daily Observations layout. Learn more.

Left ArrowRight Arrow

47.50024, -111.30081

Hourly Observations for April 18, 2022

Temp ( °F °C ) Dew Point ( °F °C ) Humidity (%) Winds ( mph kmh ) Pressure ( in mb ) Visibility ( mi km ) Precip ( " mm )
12:53 am 00:53 Clear 24 -4.4 17 -8.3 75 75 SW 7 11 30.38 1029 10 16 0.00 0.00
1:53 am 01:53 Clear 21 -6.1 15 -9.4 78 78 SSW 7 11 30.38 1029 10 16 0.00 0.00
2:53 am 02:53 Clear 21 -6.1 14 -10 74 74 SSW 7 11 30.36 1028 10 16 0.00 0.00
3:53 am 03:53 Clear 24 -4.4 15 -9.4 68 68 Calm 30.33 1027 10 16 0.00 0.00
4:53 am 04:53 Clear 20 -6.7 14 -10 78 78 Calm 30.34 1027 10 16 0.00 0.00
5:53 am 05:53 Clear 22 -5.6 15 -9.4 75 75 E 6 9 30.33 1027 10 16 0.00 0.00
6:53 am 06:53 Sunny 23 -5 16 -8.9 74 74 ESE 5 7 30.31 1026 10 16 0.00 0.00
7:53 am 07:53 Sunny 30 -1.1 19 -7.2 64 64 S 6 9 30.28 1026 10 16 0.00 0.00
8:53 am 08:53 Sunny 33 0.6 20 -6.7 58 58 SSE 3 6 30.27 1025 10 16 0.00 0.00
9:53 am 09:53 Sunny 37 2.8 19 -7.2 48 48 S 6 9 30.25 1024 10 16 0.00 0.00
10:53 am 10:53 Sunny 40 4.4 18 -7.8 41 41 S 8 13 30.20 1023 10 16 0.00 0.00
11:53 am 11:53 Sunny 43 6.1 19 -7.2 38 38 S 12 19 30.16 1022 10 16 0.00 0.00
12:53 pm 12:53 Sunny 47 8.3 21 -6.1 36 36 S 15 24 30.10 1019 10 16 0.00 0.00
1:53 pm 13:53 Mostly Sunny 50 10 22 -5.6 33 33 S 16 26 30.05 1018 10 16 0.00 0.00
2:53 pm 14:53 Sunny 51 10.6 24 -4.4 35 35 S 13 20 30.01 1016 10 16 0.00 0.00
3:53 pm 15:53 Sunny 53 11.7 24 -4.4 32 32 S 12 19 29.94 1014 10 16 0.00 0.00
4:53 pm 16:53 Sunny 52 11.1 25 -3.9 35 35 SSE 9 15 29.93 1014 10 16 0.00 0.00
5:53 pm 17:53 Sunny 52 11.1 26 -3.3 37 37 ESE 8 13 29.89 1012 10 16 0.00 0.00
6:53 pm 18:53 Sunny 50 10 27 -2.8 41 41 ESE 10 17 29.86 1011 10 16 0.00 0.00
7:53 pm 19:53 Sunny 47 8.3 28 -2.2 48 48 SE 8 13 29.82 1010 10 16 0.00 0.00
8:53 pm 20:53 Clear 42 5.6 27 -2.8 55 55 SE 6 9 29.80 1009 10 16 0.00 0.00
9:53 pm 21:53 Clear 38 3.3 27 -2.8 65 65 E 5 7 29.78 1008 10 16 0.00 0.00
10:53 pm 22:53 Clear 44 6.7 26 -3.3 49 49 SSE 15 24 29.72 1007 10 16 0.00 0.00
11:53 pm 23:53 Clear 43 6.1 26 -3.3 51 51 S 15 24 29.64 1004 10 16 0.00 0.00

Powered by AerisWeather